Tracking 19794 objects as of 22-Jul-2019
HD Live streaming from Space Station
objects crossing your sky now

COSMOS 1275 DEB

Track COSMOS 1275 DEB now!
10-day predictions


NORAD ID: 33503
Int'l Code: 1981-053MZ
Perigee: 699.9 km
Apogee: 723.8 km
Inclination: 83.0 °
Period: 98.9 minutes
Semi major axis: 7082 km
RCS: 0.0116 m2 (small)
Launch date: June 4, 1981
Source: Commonwealth of Independent States (former USSR) (CIS)
Launch site: PLESETSK MISSILE AND SPACE COMPLEX (PKMTR)

Note: This is SATELLITE DEBRIS
aabbcc
Your satellite tracking list
Your tracking list is empty




NASA's NSSDC Master Catalog

Two Line Element Set (TLE):
1 33503U 81053MT  19202.12838475 +.00000887 +00000-0 +19512-3 0  9997
2 33503 082.9591 262.2871 0016866 229.5332 130.4399 14.56423252553894
Source of the keplerian elements: AFSPC